Back to catalog

THORAD AGENA D DEB

AliveSSO
NORAD 42543·DEBRIS·🇺🇸 United States

Launched Apr 8, 1970 from Vandenberg Space Force Base

Loading…

Next Passes (next 24 hours)

TLE

FreshSource: Space-Track

Epoch: Sep 12, 2026, 05:45 UTC

1 42543U 70025SZ  26255.24022655  .00000356  00000-0  79876-3 0  9992
2 42543  99.7819 263.8957 0180812 135.4637 226.1179 13.28147123619749

Track THORAD AGENA D DEB in real time with AllMySat

Download on the App Store